Date,TemperatureHighF,TemperatureAvgF,TemperatureLowF,DewpointHighF,DewpointAvgF,DewpointLowF,HumidityHigh,HumidityAvg,HumidityLow,PressureMaxIn,PressureMinIn,WindSpeedMaxMPH,WindSpeedAvgMPH,GustSpeedMaxMPH,PrecipitationSumIn
2013-5-1,86.2,74.5,61.7,55.3,49.7,44.1,71,43,27,30.18,30.06,21,14,21,0.01
2013-5-2,84.0,67.9,34.0,64.8,54.9,17.3,100,67,34,30.12,29.88,34,11,34,1.00
2013-5-3,75.2,65.8,57.4,65.3,58.8,51.8,100,80,50,29.94,29.83,26,6,26,0.03
2013-5-4,71.8,62.3,54.0,53.8,51.2,48.0,93,69,46,30.12,29.91,23,10,23,0.00
2013-5-5,78.3,66.2,53.8,55.6,51.6,47.7,92,62,38,30.21,30.09,14,6,14,0.00
2013-5-6,77.2,66.1,60.1,66.4,56.2,44.2,100,74,38,30.21,30.06,24,4,24,0.00
2013-5-7,74.1,66.1,59.7,64.4,59.4,54.6,100,81,53,30.12,29.97,17,6,17,0.04
2013-5-8,77.0,66.0,57.6,66.0,55.9,47.8,100,75,38,30.06,29.91,13,5,13,0.09
2013-5-9,75.6,71.8,57.0,56.8,49.4,47.5,96,49,37,30.03,30.03,10,2,10,0.00
2013-5-10,80.2,74.5,60.6,51.9,47.0,44.0,72,39,30,30.03,29.80,24,4,24,0.00
2013-5-11,72.9,64.2,58.3,63.5,56.0,51.9,90,76,58,29.88,29.74,28,15,28,0.01
2013-5-12,64.8,59.2,55.6,54.9,50.4,45.8,92,74,58,29.83,29.68,38,23,38,0.01
2013-5-13,64.6,57.3,50.4,46.9,41.6,34.2,75,57,39,29.94,29.80,40,20,40,0.00
2013-5-14,65.5,57.3,50.0,46.2,42.1,38.2,80,58,42,29.97,29.88,22,10,22,0.00
2013-5-15,74.8,62.0,46.8,53.0,46.3,43.2,97,60,37,29.91,29.74,15,6,15,0.00
2013-5-16,77.7,65.7,48.7,54.4,48.4,43.3,95,58,32,29.85,29.62,22,8,22,0.00
2013-5-17,72.5,66.2,57.7,58.6,55.7,50.5,99,70,49,29.74,29.68,43,6,43,0.54
2013-5-18,76.1,65.2,55.8,59.4,50.4,41.7,100,64,32,29.97,29.71,30,8,30,0.40
2013-5-19,84.0,68.2,49.5,56.8,48.9,45.8,98,57,28,29.94,29.74,39,8,39,0.13
2013-5-20,73.4,63.5,54.5,59.3,48.6,39.9,97,62,35,29.97,29.80,31,8,31,0.01
2013-5-21,72.9,64.2,53.8,52.1,43.6,38.2,87,50,33,29.97,29.80,23,9,23,0.00
2013-5-22,68.5,60.7,52.7,51.1,45.6,38.4,79,58,41,29.83,29.59,31,6,31,0.05
2013-5-23,66.6,58.5,51.4,49.6,42.3,37.2,84,56,42,29.71,29.53,34,16,34,0.00
2013-5-24,70.3,58.8,51.4,45.5,40.7,36.8,67,52,40,29.74,29.59,18,10,18,0.00
2013-5-25,67.6,57.8,51.4,47.7,43.3,39.3,81,60,40,29.80,29.68,20,9,20,0.00
2013-5-26,66.7,56.7,49.6,55.7,43.7,32.7,100,66,38,29.80,29.68,30,10,30,0.18
2013-5-27,60.6,53.8,47.7,43.1,38.6,32.6,69,57,46,29.83,29.77,22,8,22,0.00
2013-5-28,70.0,59.0,47.8,50.6,44.8,40.4,82,61,41,29.85,29.65,18,7,18,0.03
2013-5-29,76.5,64.0,49.3,54.0,49.5,45.6,96,63,38,29.71,29.50,16,5,16,0.00
2013-5-30,65.7,59.4,54.3,64.8,55.5,48.8,100,87,65,29.59,29.44,17,8,17,0.46
2013-5-31,66.9,57.4,49.8,50.9,46.9,40.0,93,71,41,29.62,29.50,22,6,22,0.02
2013-6-1,68.9,56.8,45.5,54.2,47.8,42.8,100,75,42,29.74,29.62,23,6,23,0.01
2013-6-2,68.5,59.4,50.2,55.7,50.0,43.2,99,74,41,29.85,29.68,26,7,26,0.00
2013-6-3,62.6,57.6,53.8,53.7,50.0,45.1,89,76,61,29.94,29.85,39,23,39,0.00
2013-6-4,72.0,59.3,53.2,58.2,53.4,48.9,96,82,52,29.94,29.85,39,19,39,0.04
2013-6-5,72.9,61.2,55.8,63.3,57.8,50.9,100,90,52,30.06,29.91,14,7,14,0.14
2013-6-6,73.4,62.8,54.9,66.7,59.0,54.9,100,88,58,30.12,30.00,17,8,17,0.22
2013-6-7,78.8,67.5,58.8,65.3,56.5,49.3,100,73,36,30.09,29.91,17,8,17,0.00
2013-6-8,83.3,71.0,58.6,61.1,53.8,47.2,95,58,30,30.03,29.88,15,6,15,0.00
2013-6-9,85.1,72.9,57.6,61.2,54.7,49.6,98,58,31,29.91,29.74,17,7,17,0.00
2013-6-10,83.3,71.6,61.3,61.7,54.4,46.9,98,58,33,29.80,29.68,32,8,32,0.31
2013-6-11,74.7,63.6,56.5,62.3,57.6,50.0,100,82,45,29.91,29.74,20,7,20,0.03
2013-6-12,78.3,65.3,53.2,62.0,52.3,46.5,94,66,39,30.12,29.88,19,10,19,0.06
2013-6-13,81.9,70.5,57.0,55.0,49.3,45.0,78,50,30,30.12,29.97,17,8,17,0.00
2013-6-14,86.5,72.5,56.3,58.7,53.5,48.2,91,56,30,30.06,29.91,20,8,20,0.00
2013-6-15,88.2,75.0,60.8,62.6,57.0,52.1,91,57,31,30.03,29.88,20,6,20,0.00
2013-6-16,91.4,76.4,63.0,64.9,59.2,53.4,91,59,30,30.06,29.97,13,5,13,0.00
2013-6-17,94.8,79.5,63.5,67.0,60.4,54.8,97,58,28,30.09,29.94,12,6,12,0.00
2013-6-18,97.0,81.9,66.2,68.6,59.7,53.2,90,53,26,30.09,29.94,15,7,15,0.00
2013-6-19,99.3,84.8,65.8,63.6,59.3,54.3,83,47,25,30.03,29.88,13,6,13,0.00
2013-6-20,98.2,84.8,70.2,69.1,62.4,56.3,85,50,26,30.03,29.85,14,4,14,0.00
2013-6-21,95.9,85.9,74.5,69.5,62.3,55.3,78,48,27,29.94,29.80,17,6,17,0.00
2013-6-22,95.7,82.3,69.4,69.9,62.4,53.5,87,55,27,29.94,29.77,6,6,7,0.00
2013-6-23,86.9,77.0,68.9,73.6,63.7,56.0,99,67,37,29.88,29.74,17,7,17,0.00
2013-6-24,78.8,67.5,58.3,65.5,58.4,50.7,99,76,45,29.83,29.71,32,15,32,0.00
2013-6-25,63.7,59.4,55.2,58.2,55.2,52.9,97,86,77,30.03,29.80,30,12,30,0.00
2013-6-26,69.1,60.6,54.9,54.4,48.2,43.6,97,66,43,30.21,30.03,39,20,39,0.04
2013-6-27,69.8,60.6,53.4,52.6,49.5,46.7,82,68,46,30.21,30.09,24,11,24,0.00
2013-6-28,76.1,62.2,54.5,58.8,53.1,45.6,100,75,38,30.12,30.00,20,7,20,0.35
2013-6-29,78.1,66.5,56.5,58.6,51.9,41.7,100,65,32,30.06,29.88,23,10,23,0.00
2013-6-30,77.2,65.6,56.8,53.9,48.5,41.9,80,56,37,30.06,29.91,41,16,41,0.00
2013-7-1,77.2,65.4,52.0,46.6,43.6,41.4,73,47,31,30.15,30.03,24,11,24,0.00
2013-7-2,84.0,68.6,51.3,52.1,46.5,42.9,86,50,28,30.15,29.97,14,6,14,0.00
2013-7-3,87.6,71.8,54.3,55.8,48.9,43.3,87,50,26,30.06,29.91,14,7,14,0.00
2013-7-4,89.2,75.3,56.3,56.1,50.9,47.1,83,47,26,30.09,29.94,16,7,16,0.00
2013-7-5,86.4,74.3,64.6,73.6,60.5,49.4,100,67,32,30.15,30.03,23,9,23,0.00
2013-7-8,83.1,79.2,72.3,54.2,53.4,51.9,52,41,36,30.21,30.15,9,5,9,0.00
2013-7-14,81.9,75.8,64.8,48.7,46.7,44.7,56,37,29,30.03,29.97,29,10,29,0.00
2013-7-15,80.1,71.8,62.8,54.2,48.9,44.5,62,46,30,30.12,29.94,31,12,31,0.00
2013-7-16,76.6,76.6,76.6,45.4,45.4,45.4,33,33,33,30.18,30.09,14,8,14,0.00
2013-7-17,76.6,76.6,76.6,45.4,45.4,45.4,33,33,33,30.21,30.09,14,6,14,0.00
2013-7-18,76.6,76.6,76.6,45.4,45.4,45.4,33,33,33,30.18,30.15,13,7,13,0.00